User: anonymous   Login
Location: Unspecified
(0.0000°N, 0.0000°E)
Time: 15:21:05
(UTC+02:00)
Language:

ATLAS 2AS CENTAUR R/B - Orbit

View from above orbital plane
View from above orbital plane
View from above satellite
View from above satellite

Ground track
Ground track

The orbit data is extracted from the following two-line orbital elements,

1 28096U 03054B   16223.82720471 0.00000000  00000-0  00000-0 0    05
2 28096  63.6674 122.2819 0270000 271.7904  88.2096 13.40812426    07
Epoch (UTC): 10 August 2016 19:51:10
Eccentricity: 0.0270000
inclination: 63.6674°
perigee height: 904 km
apogee height: 1308 km
right ascension of ascending node: 122.2819°
argument of perigee: 271.7904°
revolutions per day: 13.40812426
mean anomaly at epoch: 88.2096°
orbit number at epoch: 0

The dashed part of the orbit path shows where the satellite is in the earth's shadow,  

DLR